Location: Pitt
(45.7957°N, 121.2009°W)
Time: 04:10:43
(UTC+00:00)

Envisat - Visible Passes

Search period start: 18 May 2022 00:00
Search period end: 28 May 2022 00:00
Orbit: 764 x 765 km, 98.2° (Epoch: 17 May)

Date Brightness Start Highest point End Pass type
(mag) Time Alt. Az. Time Alt. Az. Time Alt. Az.
18 May 5.6 11:30:55 10° NE 11:34:08 17° E 11:37:21 10° SE visible
21 May 5.8 11:19:54 10° ENE 11:22:15 13° E 11:24:35 10° ESE visible
23 May 5.4 11:43:47 10° NE 11:47:44 22° E 11:51:39 10° SE visible
26 May 5.6 11:32:28 10° NE 11:35:51 18° E 11:39:14 10° SE visible
